Theta_e
310 311 311 312 308 304 304 304 304 304 303 301 299 299 298 298 298 298 298 297 297 297 296 295 294 292 291 291 291 289 288 286 285 286 286 287 286 283 282 281 281 281 280
309 310 310 307 304 304 304 303 303 303 301 299 298 298 298 297 297 297 296 296 296 296 295 294 292 291 290 290 290 288 286 284 284 284 285 284 284 282 280 280 280 280 280
308 308 306 304 304 304 304 303 303 302 300 298 298 297 297 296 296 296 296 296 295 295 295 294 292 291 290 289 287 285 285 284 283 283 283 283 281 280 280 279 279 279 279
306 305 304 305 305 305 303 302 302 301 299 298 297 297 296 295 295 295 295 295 295 295 294 293 291 291 289 289 288 286 283 282 283 282 281 281 280 280 280 280 279 279 279
305 304 305 305 305 304 302 302 302 300 298 297 297 296 295 295 295 295 295 295 295 294 293 292 291 289 289 288 285 282 282 283 283 281 280 280 280 279 279 279 279 279 279
304 305 305 305 305 304 302 301 301 299 298 297 297 297 296 295 295 295 295 295 294 293 292 291 289 289 288 287 284 284 282 283 281 280 280 279 279 279 279 278 278 278 278
305 305 305 305 304 303 301 301 301 299 297 297 297 297 296 296 295 295 295 294 294 293 291 291 288 287 287 286 284 282 282 281 281 280 279 279 279 278 278 278 277 277 277
305 305 305 305 304 302 301 301 300 299 297 297 297 297 297 296 295 295 294 294 293 292 291 290 288 287 286 285 283 281 283 281 280 279 279 278 278 278 277 277 277 276 276
305 306 306 305 304 302 301 300 300 299 297 297 297 297 297 296 295 294 294 293 293 292 290 289 288 287 286 284 283 281 281 279 279 278 278 278 278 278 277 276 276 275 275
307 308 307 306 305 304 302 300 300 299 297 297 297 297 297 296 295 294 293 293 292 291 290 288 288 286 284 284 283 280 278 278 278 278 278 277 277 277 276 276 275 275 273
307 307 306 305 305 305 303 301 299 298 297 296 297 297 296 296 295 293 292 292 291 290 289 287 287 286 284 284 283 279 278 278 278 277 277 277 276 276 276 275 275 274 273
306 306 305 304 304 304 304 301 299 298 297 296 297 296 296 296 294 293 292 292 291 289 289 287 285 284 284 284 283 278 278 278 278 277 276 276 276 275 275 275 274 273 272
306 305 306 307 306 305 304 302 299 298 297 297 296 296 296 295 294 292 291 290 291 290 287 286 285 284 283 283 282 278 278 277 278 277 276 276 275 275 275 275 274 273 272
307 306 304 303 302 302 301 300 299 299 298 297 296 296 296 294 293 292 291 289 288 289 287 286 285 283 282 282 282 278 277 277 277 277 276 276 275 275 275 275 274 273 272
300 300 300 300 300 299 299 299 299 298 296 296 295 295 294 293 293 291 290 289 288 287 286 285 284 284 283 282 282 278 277 277 277 276 276 275 275 275 274 274 274 274 272
300 300 300 300 300 299 298 297 297 296 296 295 295 294 294 293 292 291 289 288 287 285 285 285 284 283 283 282 282 277 276 276 276 276 276 275 275 274 274 274 274 273 273
299 299 298 297 297 297 296 296 296 295 294 294 294 293 293 292 291 291 289 288 287 284 285 285 284 284 283 283 281 277 277 276 275 276 276 275 274 274 274 273 273 273 272
296 296 295 295 294 294 294 294 294 293 293 293 292 292 292 291 291 291 289 286 284 283 285 285 284 284 283 283 281 277 276 275 276 276 276 275 274 274 274 273 273 272 272
296 296 295 294 295 294 294 294 293 293 293 293 293 292 291 290 288 287 287 285 285 284 285 285 284 284 282 282 281 276 276 276 276 276 276 275 274 274 274 273 272 272 271
297 296 296 294 292 293 294 294 294 293 293 292 292 291 290 289 286 285 286 285 284 285 284 285 284 283 282 282 281 277 276 276 276 276 276 275 274 274 274 273 272 272 271
297 294 293 293 292 292 293 293 293 292 291 291 290 290 289 288 287 286 286 286 285 285 285 284 284 282 281 281 278 277 276 276 276 276 275 275 274 274 273 273 272 271 271
296 296 295 294 293 293 292 292 292 292 291 290 290 290 288 286 285 285 285 285 285 284 284 284 283 282 281 281 280 277 277 277 276 276 275 274 274 274 273 273 272 271 271
291 293 294 294 294 293 293 292 291 291 290 290 289 288 287 286 285 283 284 284 284 284 283 283 283 282 281 281 279 277 277 277 277 275 274 274 274 274 273 273 272 271 271
290 290 290 292 293 293 293 292 291 290 290 289 288 287 286 285 285 283 284 283 283 283 282 282 282 282 281 281 280 277 277 277 276 275 274 274 274 274 273 273 272 271 271
289 289 289 289 289 290 291 291 290 290 289 288 287 286 285 284 284 283 283 283 283 282 282 282 282 281 281 281 280 278 277 276 276 275 274 274 274 274 274 273 272 271 271
288 287 288 288 288 288 288 288 289 288 288 287 286 285 284 284 283 283 283 282 282 282 282 282 281 281 281 281 280 278 276 276 276 275 274 274 274 274 273 273 272 272 271
Wind_Speed
20 19 18 17 16 15 13 12 11 10 8 6 5 4 6 8 10 12 13 15 16 16 16 16 16 17 17 17 17 17 16 14 14 13 12 11 10 11 13 13 12 13 14
19 18 18 18 17 15 14 13 12 10 9 8 5 5 7 10 12 13 14 15 15 15 16 16 17 17 17 18 17 16 15 12 10 11 9 9 11 13 12 12 13 14 14
19 19 20 19 17 15 15 14 13 13 11 8 6 7 9 11 13 14 15 15 15 15 16 16 17 16 16 16 16 16 13 11 8 7 9 11 11 11 10 12 13 14 14
21 21 21 19 17 17 16 15 16 15 12 9 7 8 10 12 13 14 15 15 16 16 16 16 16 15 15 15 15 14 12 8 8 8 9 10 10 11 11 11 12 13 14
23 23 22 20 20 19 17 18 17 16 13 10 7 9 11 13 14 15 16 16 15 16 16 16 16 15 15 14 13 10 8 9 9 9 10 10 10 11 13 14 14 15 16
25 24 22 22 21 20 20 20 19 18 15 10 7 9 12 14 16 17 18 16 16 16 15 16 16 15 14 13 9 11 8 9 10 10 10 10 10 11 13 15 17 17 17
27 25 23 23 23 21 21 21 21 19 16 11 9 10 13 16 18 18 18 16 16 16 14 16 16 15 15 13 11 9 9 9 10 11 10 10 11 12 14 15 16 17 19
28 26 24 23 22 22 23 22 22 22 18 13 11 12 15 18 20 20 21 18 16 15 14 16 15 15 15 13 12 11 10 9 10 10 10 11 12 13 15 16 16 18 19
28 24 23 22 21 23 25 24 24 24 21 17 14 16 18 20 22 23 23 19 16 16 15 14 15 15 15 14 13 13 11 11 11 10 10 12 14 15 15 17 18 19 20
28 23 21 20 22 24 25 25 26 26 22 20 18 19 21 23 25 25 24 21 19 17 17 16 15 15 15 16 13 13 12 12 12 11 12 13 14 16 17 17 18 19 20
26 23 22 22 23 23 25 26 27 27 25 23 23 23 24 25 26 26 26 23 21 19 18 17 15 16 16 17 16 15 13 13 12 12 13 14 15 15 16 18 18 19 19
25 25 25 24 25 26 27 27 28 28 28 27 28 27 27 27 27 27 26 27 24 21 19 16 16 18 18 17 15 14 14 13 13 13 13 14 15 16 16 18 19 19 19
23 25 25 26 28 27 26 26 28 29 30 31 32 30 29 28 27 28 28 27 27 24 18 17 18 19 21 18 16 16 15 14 14 14 14 14 15 16 17 18 19 19 19
22 23 22 20 20 20 21 23 26 29 32 33 32 32 30 29 29 30 29 28 28 29 23 19 19 20 22 22 18 16 15 15 15 15 15 15 15 16 18 18 19 20 19
14 16 16 17 18 19 20 23 26 28 28 30 30 31 31 33 30 27 28 28 29 29 26 25 24 24 25 26 23 19 17 17 16 16 16 16 16 18 18 19 20 21 21
17 19 21 21 22 23 24 25 26 27 29 30 31 33 33 33 32 30 29 28 28 30 31 33 30 27 25 25 24 22 19 18 17 18 18 17 18 18 19 19 20 21 22
23 24 26 27 27 27 28 28 29 28 29 30 32 35 34 33 30 29 28 27 27 29 34 35 33 31 27 25 24 23 20 19 21 20 18 18 18 19 19 19 20 21 22
27 27 29 29 29 28 28 29 29 30 30 32 32 34 33 29 29 24 23 24 26 30 37 35 33 30 28 25 24 25 22 22 23 21 20 19 20 20 20 19 20 21 22
23 24 27 30 30 30 30 30 30 31 33 33 32 31 27 26 23 26 21 26 30 33 36 34 29 27 26 26 26 26 25 25 24 22 21 20 20 22 20 19 21 21 22
18 21 23 26 28 28 27 27 28 29 29 30 28 25 22 21 23 28 28 26 31 33 34 32 29 25 23 26 26 27 27 27 25 23 21 20 21 22 20 20 21 21 22
16 17 18 19 20 22 24 25 24 24 25 26 25 21 19 22 23 27 29 30 30 31 32 29 26 24 23 24 24 26 27 27 25 23 22 21 21 21 20 21 21 21 22
16 16 17 17 18 19 20 21 21 22 23 23 22 19 18 21 23 25 28 30 30 33 30 28 25 23 23 24 25 26 26 26 23 22 22 21 22 21 21 21 21 21 22
16 16 18 18 19 19 19 19 21 21 22 23 23 22 20 21 23 26 28 27 28 29 29 28 26 25 25 26 26 26 26 25 21 21 23 22 22 21 21 21 21 21 22
19 18 18 18 19 20 21 21 22 23 25 25 24 23 22 21 23 25 26 27 27 27 27 28 27 26 26 27 27 26 26 24 24 23 23 23 22 21 21 21 20 20 22
21 21 21 21 20 20 21 23 24 24 24 25 24 23 23 23 24 25 25 27 27 28 28 28 28 28 28 29 28 27 26 25 25 25 24 23 22 22 22 20 19 20 21
23 23 23 23 23 23 23 24 24 24 25 25 25 25 24 24 25 25 24 26 28 28 28 29 29 28 28 29 29 29 28 27 27 25 25 24 23 22 21 20 20 20 20
Wind_Direction
210 210 207 202 195 192 199 212 219 225 228 229 240 279 319 331 328 327 329 331 327 323 323 323 321 320 319 317 317 316 313 308 295 290 281 279 282 298 300 305 310 307 309
207 205 199 194 193 200 211 222 229 229 229 233 256 302 319 323 327 329 328 321 319 324 325 324 324 323 322 320 317 316 317 315 305 291 281 274 291 288 300 308 312 315 315
203 199 195 193 200 210 222 228 231 231 233 239 266 298 318 326 327 321 314 317 322 324 324 322 320 319 319 318 319 319 315 310 306 296 291 280 282 292 305 312 317 316 315
201 197 196 201 210 221 229 232 231 231 231 243 272 309 324 322 313 310 314 317 319 321 319 317 319 320 317 316 313 311 304 305 312 303 293 285 289 300 309 316 314 315 316
201 199 202 210 219 228 234 237 234 233 235 248 288 318 314 306 306 311 308 309 313 312 314 316 316 315 314 315 311 305 302 304 303 299 296 293 297 311 316 323 329 327 325
203 204 211 221 230 236 239 238 236 235 236 249 280 301 304 305 307 305 305 306 308 311 312 314 312 311 312 314 304 297 289 292 294 298 295 300 306 314 321 326 328 328 334
206 212 221 231 237 241 243 241 239 239 240 246 267 293 303 305 300 300 298 300 301 304 307 309 304 306 307 307 300 283 277 282 294 293 294 301 308 317 321 325 327 329 328
212 220 228 237 242 245 246 246 243 241 242 245 262 283 296 294 295 296 294 293 293 294 299 301 295 298 298 295 285 272 275 287 288 288 292 301 308 316 320 322 326 330 328
219 223 233 243 251 252 254 253 247 245 243 248 259 274 285 288 290 291 292 289 286 285 289 289 288 293 289 282 269 268 276 285 285 285 293 301 307 315 318 322 328 327 327
218 226 239 249 258 261 262 259 253 249 245 246 256 268 276 284 287 288 289 287 281 279 281 279 285 284 277 274 259 265 273 277 280 287 295 301 305 310 316 322 324 326 329
228 236 247 255 262 269 266 261 257 252 247 251 260 267 274 279 283 284 286 284 277 271 273 273 278 274 268 265 257 262 263 270 275 280 289 294 298 305 312 317 320 324 326
243 250 257 265 268 273 269 259 256 252 249 254 261 266 271 276 281 281 282 283 274 267 270 266 267 264 263 258 253 256 257 263 272 278 283 288 296 302 309 313 318 322 323
255 263 267 267 270 270 262 258 255 253 254 257 262 269 274 277 279 279 278 272 276 272 261 260 257 255 262 256 249 252 255 259 269 275 279 285 293 299 304 310 315 319 321
262 268 271 274 273 271 267 261 256 255 257 260 265 271 277 277 279 276 272 265 261 269 266 259 259 254 252 257 250 245 248 258 268 273 279 283 289 295 300 307 313 317 319
268 274 277 281 284 279 271 265 262 262 264 266 269 272 275 278 286 281 272 264 258 260 265 260 255 252 249 251 254 251 249 258 266 272 277 281 288 292 297 304 311 316 319
282 286 286 283 278 272 267 265 265 265 264 267 272 275 279 283 282 276 264 256 252 249 252 255 255 255 255 254 255 255 251 258 266 270 274 279 284 289 293 300 308 315 318
278 275 274 273 273 273 272 271 271 270 271 271 272 277 283 283 279 273 263 253 249 246 252 253 253 254 255 253 252 251 252 258 260 269 273 275 281 285 289 296 303 311 314
279 278 276 273 271 270 269 271 272 272 271 273 276 280 280 280 279 272 259 245 237 236 252 253 253 255 254 252 250 249 251 254 260 266 270 274 280 283 287 293 298 306 311
281 280 277 274 272 271 269 270 272 273 275 276 277 275 278 278 268 265 260 236 240 245 251 257 258 256 250 247 246 247 248 252 259 263 269 274 277 281 286 290 294 302 309
285 283 280 276 272 269 270 272 273 275 276 277 280 284 282 271 254 250 259 247 245 251 254 260 262 260 254 249 247 246 248 250 255 263 268 272 276 280 287 288 292 299 306
300 293 286 283 282 276 272 271 272 272 275 277 279 281 281 272 262 255 258 256 255 259 263 264 264 259 253 247 246 247 248 250 253 260 266 272 276 281 286 286 292 297 305
303 299 295 292 285 279 276 277 279 278 278 281 287 288 278 267 261 256 256 258 259 264 269 267 264 257 252 251 253 254 254 250 254 259 266 272 276 281 283 286 290 295 301
311 309 303 298 290 286 284 283 281 283 286 287 286 282 272 265 261 258 261 263 264 264 265 265 263 255 250 250 253 253 249 250 258 260 262 269 275 279 281 284 287 292 298
308 311 308 301 294 290 289 286 284 283 283 283 283 281 278 272 265 262 263 264 264 263 262 260 258 254 250 248 250 252 252 253 254 257 263 269 274 276 278 282 285 288 293
299 301 301 299 299 296 292 288 285 284 284 284 285 282 279 275 271 267 263 263 261 259 257 256 253 250 249 247 249 251 253 252 253 256 261 268 271 273 276 279 282 285 291
297 294 292 293 295 296 295 293 291 288 286 286 285 283 280 277 274 271 266 262 261 260 257 254 253 249 246 246 247 248 249 249 251 256 260 264 268 271 273 275 277 283 287